sat.trackr.live / text

‹ back to catalog

STARLINK-4674

NORAD 53591 · 2022-104D

PAYLOAD ACTIVE UNKNOWN

§ Identity

Operator
Country
US
Launch date
2022-08-28
Launch site
AFETR
Launch vehicle
Mass (kg)
RCS (m²)

Purposes: comms

External: N2YO · Heavens-Above · Gunter

§ Orbital elements

Epoch: 2026-05-24T17:47:27.546720Z

Period
95.44 min
Inclination
53.2160°
Eccentricity
0.0001333
Mean motion
15.08845120 rev/d
Perigee alt
538.8 km
Apogee alt
540.6 km
Semi-major
6,917.9 km
B*
2.5056e-5
RAAN
262.8817°
Arg perigee
90.3504°
Mean anomaly
269.7641°
Rev number
20,744

§ Raw data

STARLINK-46741 53591U 22104D   26144.74129105  .00000111  00000+0  25056-4 0  99922 53591  53.2160 262.8817 0001333  90.3504 269.7641 15.08845120207443

JSON: /api/v1/satellites/53591 · /tle

For live sub-satellite position, see the globe view (requires WebGL).

§ Visibility from observer

Set your observer location to see the next 7 days of passes ≥ 10°. The values pass through the URL so the page stays shareable.

No JS? Fill the form by hand. The geolocation button needs JavaScript.